"Pseudo-MPEC" for P10IcVh

Created 2018 Jul 12 16:18:10 UT using Find_Orb

Click here for an explanation of pseudo-MPECs

 
 Astrometry: 
     P10IcVh  C2018 07 08UpAstrometryk$!t%/q=):E=H/emll25(e3/$D@Y:1];+Xn4OxNNF51
     P10IcVh  C2018 07 08ov]ZC)0?cuuv_@%3Z6KPvgbD!7B*elZ$,-4%pcTFHTAMBUm+nZm8F51
     P10IcVh  C2018 07 086^5@I'T-XfnFEdye2.,:P;2CGZ#:LmSa3VBh\*Hx!mqeG\QUBE_]F51
     P10IcVh KC2018 07 081(^k_SrS,3@bVby:=G8o/]pEhKAhdYSlqy+Jq80*Ys:urT8sG0B0204
     P10IcVh KC2018 07 09m806=QX'd1M60Y`'qq2*Dp[C(Of8vXHfvTDWrV+.@IHit4t:ThOr204
     P10IcVh KC2018 07 09.02429 20 21 39.46 -11 02 17.5                VNEOCPJ95
     P10IcVh KC2018 07 09.03076 20 21 38.49 -11 03 12.2                VNEOCPJ95
     P10IcVh KC2018 07 09.03939 20 21 37.13 -11 04 24.4          20.0 GVNEOCPJ95
     P10IcVh KC2018 07 091W!QpR0r,L==yMH-mfVoVP)*Hx^6M0+2SUc'6I.Sg-inN0KC@U'JH21
     P10IcVh KC2018 07 09X%bnRrJ7^$FA(9E6F2w'UkUepx+%/^^q,kDW(([)_V1R!!RgxYCiH21
     P10IcVh KC2018 07 094b:gn@FW$_)0PMg2/redacted;oHY4'-YfEIU-cvU)v3a[q1C_xRH21
     P10IcVh KC2018 07 09;mUtN///ei)0l8q/4'l0nSldJW-cU9%InSwX,t'O#7A;cP)DB:8uH21
     P10IcVh KC2018 07 09`=ccMVBv%vM]83W@c51**N54rW(0-hf-+)JX:m.?i5V[Ig!fgJa;H21
     P10IcVh KC2018 07 09_u4qWxXE?e*i=\K5%;E;3*i].PyH%gs\?Q[^pf;_)1v.GU#FpAYg104
     P10IcVh KC2018 07 09%IJhS#6Yj/o0`QHVqcoukbv!fBqa8A%c/X@Ek1.aAnli$cSs=(?Y104
     P10IcVh KC2018 07 09$@yFka^\'!k:A6+RxFMl8=JUJwr,,06+0\F3@(nuM.=no;:Ba-91104
     P10IcVh KC2018 07 09b=/5I%u3pD,'1c%!7h=T\fpPcW]VCtRiw1d1'jUgKfm5EngfZ#R*K63
     P10IcVh KC2018 07 09TobkL_Ek4wx.^CcKn)?])3cpyDN,((!DM')s'ta%w`35)Q`Q4%5qK63
     P10IcVh KC2018 07 09mxhFvR%x.I%5SR=M:v$T/9]:4)Y#BMR^seeYW6A[p14HN;$tpg3SK63
     P10IcVh KC2018 07 10(gBe!Ee'!..TFBe7=F-N4/V*LZ$BH7P*YLoZKZ;MB$[iFFZcGgl[H21
     P10IcVh KC2018 07 10PHe)iyQ[O[:U*Ndi-amh*mid16+#K[%7^.Z79o@NcuX7!w[/^(QhH21
     P10IcVh KC2018 07 10P@RaV]\rCs0,-GEWgt@,2r)G[g)2/Y-at=x8yK6L[BZ)A7Jo1AC9H21
     P10IcVh KC2018 07 12_Dt'N`6-mR\1*N0Ud]7`qt(bxwM?yK2_o`@CGV+n.gYmojHZ'9tR474
     P10IcVh KC2018 07 123nfA+SlrlbX2_YCjN+1-x[QGo2:id(lXnFTSSFKFb*2HcUlkaXy_474
     P10IcVh KC2018 07 129*`.=Uw']C:Qin*wn0CWnU%1eq#LOVeB`PW[(9rKSIo!-loqiLex474
     P10IcVh KC2018 07 12+w=#i,0/)JiY($;AvANy6O,\x$%KCWV@u3tt*M#/p67tRXJNEOCP474

Station data:
(104) San Marcello Pistoiese  (N44.063037 E10.804200)  Italy. 0.40-m f/5
   reflector.
(204) Schiaparelli Observatory  (N45.867933 E8.770800)  Italy.  Observer L.
   Buzzi. 0.60-m f/4.64 Newtonian + CCD.
(474) Mount John Observatory, Lake Tekapo  (S43.987388 E170.464960)  New
   Zealand.  Observers A. C. Gilmore, P. M. Kilmartin. Measurer P. M.
   Kilmartin. 1.0-m f/7.7 reflector + CCD.
(F51) Pan-STARRS 1, Haleakala  (N20.707235 W156.255910)  US/Hawaii.
   Observers N. Primak, A. Schultz, S. Watters, J. Thiel, T. Goggia. Measurer
   PS1 Science Consortium. 1.8-m Ritchey-Chrétien + CCD.
(H21) Astronomical Research Observatory, Westfield  (N39.483057 W87.968270)
   US/Illinois. 0.76-m f/3.0 astrograph + CCD.
(J95) Great Shefford  (N51.474969 W1.447003)  UK.  Observer P. Birtwhistle.
   0.40-m f/6.0 Schmidt-Cassegrain + CCD.
(K63) G. Pascoli Observatory, Castelvecchio Pascoli  (N44.082410 E10.462000)
   Italy.

Orbital elements:  P10IcVh
   Perihelion 2018 Dec 30.445510 +/- 0.136 TT = 10:41:32 (JD 2458482.945510)
Epoch 2018 Jul 12.0 TT = JDT 2458311.5   Earth MOID: 0.0919   AutoNEOCP
M 198.61591 +/- 0.20                (J2000 ecliptic)
n   0.94131417 +/- 0.00191          Peri.  345.27119 +/- 0.16
a   1.03112895 +/- 0.00139          Node   111.40517 +/- 0.008
e   0.1390023 +/- 0.000351          Incl.   25.61921 +/- 0.20
P   1.05/382.44d           H 22.9   G  0.15   U  8.5  
q 0.88779956 +/- 0.00156    Q 1.17445835 +/- 0.00123
From 26 observations 2018 July 8-12; mean residual 0".30
Residuals in arcseconds: 
180708 F51  .04-  .05-    180709 H21  .19-  .05-    180709 K63  .00   .82+    
180708 F51  .02-  .07-    180709 H21  .00   .06-    180710 H21  .20+  .38-    
180708 F51  .00   .00     180709 H21  .15-  .03-    180710 H21  .34+  .65-    
180708 204  .14-  .23-    180709 H21  .26-  .08+    180710 H21  .28+  .38-    
180709 204  .46-  .38-    180709 104  .12-  .20+    180712 474  .33-  .03-    
180709 J95  .28-  .18+    180709 104  .46-  .02+    180712 474  .02+  .21+    
180709 J95  .30+  .16-    180709 104  .61+  .20+    180712 474  .22+  .05+    
180709 J95  .12+  .15+    180709 K63  .78+  .04-    180712 474  .16-  .11-    
180709 H21  .14-  .04-    180709 K63  .69-  .32-    

Ephemerides (geocentric):
Date (UTC) HH   RA              Dec         delta   r     elong  mag " sig PA
---- -- -- --  -------------   -----------  ------ ------ -----  --- ---- ---
2018 07 12 16  20 11 54.024   -20 02 38.12  .15400 1.1683 169.3 19.8  .21  29
2018 07 12 17  20 11 46.497   -20 09 07.79  .15393 1.1682 169.3 19.8  .22  29
2018 07 12 18  20 11 38.951   -20 15 37.76  .15387 1.1682 169.4 19.8  .23  29
2018 07 12 19  20 11 31.385   -20 22 08.04  .15381 1.1682 169.5 19.8  .25  29
2018 07 12 20  20 11 23.799   -20 28 38.62  .15375 1.1681 169.6 19.8  .26  29
2018 07 12 21  20 11 16.193   -20 35 09.51  .15368 1.1681 169.7 19.8  .28  29
2018 07 12 22  20 11 08.567   -20 41 40.69  .15362 1.1681 169.8 19.8  .29  29
2018 07 12 23  20 11 00.922   -20 48 12.16  .15356 1.1681 169.9 19.8  .30  29
2018 07 13 00  20 10 53.257   -20 54 43.92  .15350 1.1680 170.0 19.8  .32  29
2018 07 13 01  20 10 45.572   -21 01 15.96  .15345 1.1680 170.0 19.8  .33  29
2018 07 13 02  20 10 37.867   -21 07 48.29  .15339 1.1680 170.1 19.8  .35  29
2018 07 13 03  20 10 30.142   -21 14 20.89  .15333 1.1680 170.2 19.8  .36  29
2018 07 13 04  20 10 22.397   -21 20 53.76  .15328 1.1679 170.3 19.8  .38  29
2018 07 13 05  20 10 14.632   -21 27 26.90  .15322 1.1679 170.4 19.7  .39  29
2018 07 13 06  20 10 06.847   -21 34 00.30  .15317 1.1679 170.4 19.7  .41  29
2018 07 13 07  20 09 59.041   -21 40 33.96  .15311 1.1679 170.5 19.7  .42  30
2018 07 13 08  20 09 51.216   -21 47 07.88  .15306 1.1678 170.6 19.7  .44  30
2018 07 13 09  20 09 43.371   -21 53 42.04  .15301 1.1678 170.7 19.7  .45  30
2018 07 13 10  20 09 35.506   -22 00 16.46  .15295 1.1678 170.7 19.7  .47  30
2018 07 13 11  20 09 27.620   -22 06 51.12  .15290 1.1678 170.8 19.7  .48  30
2018 07 13 12  20 09 19.714   -22 13 26.02  .15285 1.1677 170.9 19.7  .50  30
2018 07 13 13  20 09 11.788   -22 20 01.15  .15280 1.1677 170.9 19.7  .52  30
2018 07 13 14  20 09 03.842   -22 26 36.51  .15275 1.1677 171.0 19.7  .53  30
2018 07 13 15  20 08 55.876   -22 33 12.10  .15270 1.1677 171.1 19.7  .55  30
2018 07 13 16  20 08 47.889   -22 39 47.91  .15266 1.1676 171.1 19.7  .56  30
2018 07 13 17  20 08 39.882   -22 46 23.93  .15261 1.1676 171.2 19.7  .58  30
2018 07 13 18  20 08 31.854   -22 53 00.18  .15256 1.1676 171.3 19.7  .60  30
2018 07 13 19  20 08 23.806   -22 59 36.63  .15252 1.1676 171.3 19.7  .61  30
2018 07 13 20  20 08 15.738   -23 06 13.28  .15247 1.1675 171.4 19.7  .63  30
2018 07 13 21  20 08 07.650   -23 12 50.13  .15243 1.1675 171.4 19.7  .65  31
2018 07 13 22  20 07 59.540   -23 19 27.18  .15239 1.1675 171.5 19.7  .66  31
2018 07 13 23  20 07 51.411   -23 26 04.43  .15234 1.1674 171.5 19.7  .68  31
2018 07 14 00  20 07 43.261   -23 32 41.86  .15230 1.1674 171.6 19.7  .69  31
2018 07 14 01  20 07 35.090   -23 39 19.47  .15226 1.1674 171.6 19.7  .71  31
2018 07 14 02  20 07 26.899   -23 45 57.26  .15222 1.1674 171.7 19.7  .73  31
2018 07 14 03  20 07 18.688   -23 52 35.23  .15218 1.1673 171.7 19.7  .75  31
2018 07 14 04  20 07 10.455   -23 59 13.36  .15214 1.1673 171.7 19.7  .76  31
2018 07 14 05  20 07 02.202   -24 05 51.66  .15210 1.1673 171.8 19.7  .78  31
2018 07 14 06  20 06 53.929   -24 12 30.12  .15207 1.1673 171.8 19.7  .80  31
2018 07 14 07  20 06 45.635   -24 19 08.74  .15203 1.1672 171.8 19.7  .81  31
2018 07 14 08  20 06 37.320   -24 25 47.51  .15199 1.1672 171.9 19.7  .83  31
2018 07 14 09  20 06 28.984   -24 32 26.42  .15196 1.1672 171.9 19.7  .85  32
2018 07 14 10  20 06 20.628   -24 39 05.48  .15193 1.1671 171.9 19.7  .86  32
2018 07 14 11  20 06 12.251   -24 45 44.68  .15189 1.1671 172.0 19.7  .88  32
2018 07 14 12  20 06 03.853   -24 52 24.01  .15186 1.1671 172.0 19.7  .90  32
2018 07 14 13  20 05 55.434   -24 59 03.48  .15183 1.1671 172.0 19.7  .92  32
2018 07 14 14  20 05 46.994   -25 05 43.06  .15180 1.1670 172.0 19.7  .93  32
2018 07 14 15  20 05 38.534   -25 12 22.77  .15176 1.1670 172.0 19.7  .95  32